[[{"header":{"parameterUnit":"m.s-1","parameterCategory":1,"la1":30.2991,"la2":30.254,"lo1":-89.0895,"lo2":-89.0444,"dy":0.0017,"dx":0.0017,"nx":28,"ny":28,"refTime":"2025-05-30T09:00:00:Z","depth":0,"parameterNumber":2,"parameterNumberName":"U-component_of_WINDS"},"data":[0,0,0,0,0,0,0,0,0,0,0,0,0,0,0,0,0,0,0,0,0,0,0,0,0,0,0,0,0,0,0,0,0,0,0,0,0,0,0,0,0,0,0,0,0,0,0,0,0,0,0,0,0,0,0,0,0,0,2.7137,2.7138,0,2.7231,2.7232,2.7234,2.728,2.7279,2.7279,2.7279,2.7382,2.7385,2.7388,0,0,0,0,0,0,0,0,0,0,0,0,0,2.7003,2.7005,2.7137,2.7138,2.7139,2.7231,2.7233,2.7234,2.728,2.7279,2.7279,2.7279,2.7382,2.7385,2.7388,0,0,0,0,0,0,0,0,0,0,0,0,0,2.7076,2.7006,2.7136,2.7173,2.7177,2.7231,2.7233,2.7234,2.728,2.7279,2.7279,2.7279,2.738,2.7384,2.7389,2.7415,0,0,2.7401,2.7403,0,0,0,0,0,0,0,0,2.7071,2.708,2.7166,2.717,2.7175,2.7243,2.7223,2.7295,2.728,2.7241,2.7279,2.7279,2.7337,2.7344,2.7362,2.742,2.7425,2.7402,2.7404,2.7406,2.7407,0,0,0,0,0,0,0,2.7066,2.7077,2.7174,2.7167,2.7173,2.7187,2.7197,2.7237,2.7288,2.7244,2.7248,2.7258,2.7339,2.7358,2.7365,2.7426,2.7402,2.7405,2.7408,2.7409,2.7515,2.7515,0,0,0,0,0,0,2.7054,2.7072,2.7171,2.7177,2.7122,2.7189,2.7201,2.7222,2.7288,2.7298,2.7258,2.726,2.7351,2.736,2.7369,2.7407,2.7406,2.741,2.7412,2.7515,2.7515,2.7515,0,0,0,0,0,0,2.7051,2.7063,2.7167,2.7126,2.714,2.7191,2.7215,2.7224,2.7243,2.7298,2.7308,2.7268,2.7352,2.7363,2.7404,2.7411,2.7412,2.7416,2.7514,2.7515,2.7515,2.7482,0,0,0,0,0,0,2.7047,2.7061,2.707,2.7125,2.7142,2.7198,2.7215,2.7225,2.7249,2.7252,2.731,2.7319,2.7352,2.7398,2.7408,2.7417,2.7419,2.7514,2.7515,2.7515,2.7483,2.7481,2.748,0,0,0,0,0,2.7042,2.7057,2.707,2.7082,2.7154,2.7198,2.7208,2.7244,2.7249,2.726,2.7296,2.7318,2.7409,2.7401,2.7414,2.7424,2.7514,2.7514,2.7515,2.7483,2.7482,2.748,0,0,0,0,0,0,2.7003,2.7065,2.708,2.7113,2.715,2.7206,2.722,2.7241,2.7278,2.728,2.7325,2.7338,2.7375,2.7404,2.7394,2.7455,2.7464,2.7467,2.7435,2.7434,2.7433,2.7426,2.7422,0,0,0,0,0,2.6998,2.7027,2.7081,2.7105,2.7123,2.7168,2.7189,2.7214,2.7255,2.7271,2.731,2.735,2.7389,2.7413,2.7451,2.7487,2.7502,2.7501,2.7499,2.7498,2.7501,2.7525,2.7526,2.7518,2.7518,2.7518,0,0,2.6988,2.7026,2.7042,2.7098,2.7129,2.7161,2.7181,2.7213,2.7238,2.7276,2.7317,2.7348,2.7396,2.7436,2.7455,2.7461,2.7506,2.7499,2.7497,2.7501,2.7526,2.7527,2.7527,2.7518,2.7518,2.7518,0,0,2.6987,2.7017,2.7042,2.7073,2.712,2.7151,2.7157,2.721,2.7232,2.7273,2.7303,2.7335,2.7399,2.7433,2.7459,2.7473,2.7496,2.7485,2.7478,2.7502,2.7502,2.7503,2.7511,2.7513,2.7487,2.7487,2.7487,0,2.6969,2.7016,2.7052,2.7083,2.7109,2.7144,2.7171,2.72,2.7258,2.7276,2.7281,2.7364,2.7399,2.7448,2.7452,2.7471,2.7482,2.7479,2.7499,2.75,2.7502,2.7509,2.7512,2.7485,2.7486,2.7486,2.7486,0,2.6994,2.7026,2.7041,2.7094,2.7121,2.715,2.7194,2.7217,2.724,2.7271,2.7315,2.7359,2.7407,2.7421,2.7444,2.7475,2.7477,2.749,2.7499,2.75,2.7509,2.7512,2.7483,2.7484,2.7484,2.7485,0,0,2.6969,2.7044,2.7049,2.7075,2.713,2.7157,2.719,2.7236,2.7256,2.7296,2.7326,2.738,2.7393,2.7422,2.745,2.747,2.7483,2.7482,2.7484,2.7482,2.7523,2.7514,2.7516,2.7497,2.7498,2.7499,2.7519,0,2.6977,2.7033,2.7068,2.7112,2.7144,2.7179,2.7208,2.7247,2.7277,2.7311,2.7346,2.7385,2.7398,2.7416,2.7438,2.7476,2.7492,2.7475,2.7529,2.753,2.7516,2.752,2.751,2.7527,2.7523,2.7523,2.7524,0,2.6993,2.7031,2.7077,2.7132,2.7147,2.7171,2.7218,2.7249,2.7295,2.7316,2.735,2.7378,2.7417,2.7422,2.7478,2.7466,2.7491,2.7513,2.7515,2.7523,2.7527,2.7529,2.7533,2.7536,2.7529,2.7528,2.7528,0,2.6973,2.7036,2.7072,2.7093,2.7157,2.7174,2.7202,2.7248,2.7275,2.7316,2.7335,2.7381,2.7407,2.7443,2.7485,2.7484,2.7537,2.7546,2.7559,2.7558,2.7569,2.7568,2.7578,2.7582,2.7582,2.7582,2.7582,0,2.6979,2.7006,2.7064,2.7087,2.712,2.7161,2.7194,2.7225,2.7267,2.7298,2.7332,2.7362,2.7413,2.7451,2.7483,2.7526,2.7537,2.7558,2.7567,2.7556,2.7553,2.7573,2.7573,2.7582,2.7582,2.7582,2.7582,0,2.6962,2.7001,2.7044,2.7101,2.7117,2.7139,2.7189,2.7215,2.7247,2.7287,2.7299,2.7352,2.7398,2.7442,2.7503,2.7526,2.7569,2.758,2.7553,2.7558,2.7569,2.7568,2.7594,2.7601,2.7598,2.7598,2.7597,0,2.6963,2.6985,2.7045,2.7068,2.7095,2.7131,2.7158,2.7201,2.7229,2.7285,2.7304,2.7352,2.7392,2.7464,2.7509,2.7558,2.7571,2.7577,2.7578,2.7568,2.7574,2.7572,2.7576,2.7576,2.7575,2.7575,2.7575,0,2.6963,2.6982,2.7018,2.7063,2.7094,2.7132,2.717,2.7188,2.7239,2.7269,2.7315,2.7346,2.7409,2.7458,2.7512,2.7544,2.7569,2.7574,2.758,2.757,2.7554,2.7565,2.7552,2.7574,2.7574,2.7574,2.7574,2.7574,2.6957,2.6979,2.7025,2.7066,2.7099,2.7136,2.7162,2.7199,2.7238,2.7291,2.7315,2.7362,2.7412,2.7486,2.7518,2.7558,2.7565,2.7573,2.7575,2.7577,2.7575,2.7547,2.7568,2.7568,2.7568,2.7569,2.7569,0,2.6959,2.6991,2.7028,2.7081,2.7114,2.7133,2.7178,2.7206,2.7246,2.7289,2.7328,2.7383,2.7431,2.7481,2.7532,2.7555,2.7568,2.7567,2.7567,2.7574,2.7566,2.7556,2.7556,2.7556,2.7556,2.7556,2.7556,2.7556,2.6964,2.7004,2.7029,2.7087,2.7119,2.7164,2.7189,2.7224,2.7259,2.7318,2.7357,2.7388,2.7436,2.7491,2.7537,2.7551,2.7569,2.7565,2.7582,2.7574,2.7574,2.7575,2.7567,2.7568,2.7568,2.7588,2.7588,2.7588]},{"header":{"parameterUnit":"m.s-1","parameterCategory":1,"la1":30.2991,"la2":30.254,"lo1":-89.0895,"lo2":-89.0444,"dy":0.0017,"dx":0.0017,"nx":28,"ny":28,"refTime":"2025-05-30T09:00:00:Z","depth":0,"parameterNumber":3,"parameterNumberName":"V-component_of_WINDS"},"data":[0,0,0,0,0,0,0,0,0,0,0,0,0,0,0,0,0,0,0,0,0,0,0,0,0,0,0,0,0,0,0,0,0,0,0,0,0,0,0,0,0,0,0,0,0,0,0,0,0,0,0,0,0,0,0,0,0,0,0.2052,0.2051,0,0.2035,0.2035,0.2035,0.2007,0.2007,0.2006,0.2006,0.1988,0.1988,0.1988,0,0,0,0,0,0,0,0,0,0,0,0,0,0.2055,0.2056,0.2052,0.2051,0.2051,0.2036,0.2035,0.2035,0.2007,0.2007,0.2006,0.2005,0.1988,0.1988,0.1988,0,0,0,0,0,0,0,0,0,0,0,0,0,0.2048,0.2056,0.2052,0.2036,0.2034,0.2036,0.2035,0.2035,0.2007,0.2007,0.2006,0.2005,0.1988,0.1988,0.1988,0.2004,0,0,0.1989,0.1989,0,0,0,0,0,0,0,0,0.2048,0.2048,0.2038,0.2037,0.2035,0.2023,0.203,0.2025,0.2008,0.2018,0.2006,0.2005,0.2,0.1999,0.1998,0.2004,0.2003,0.1989,0.1989,0.1989,0.1989,0,0,0,0,0,0,0,0.2049,0.2048,0.2045,0.2038,0.2036,0.2028,0.2026,0.2029,0.2014,0.2017,0.2015,0.2013,0.1999,0.1998,0.1997,0.2003,0.1989,0.1989,0.1989,0.1989,0.2016,0.2017,0,0,0,0,0,0,0.2052,0.2049,0.2046,0.2045,0.204,0.2029,0.2026,0.2027,0.2013,0.2011,0.2014,0.2012,0.1998,0.1997,0.1997,0.2012,0.1989,0.1989,0.1989,0.2016,0.2016,0.2017,0,0,0,0,0,0,0.2052,0.2052,0.2046,0.2046,0.2045,0.2029,0.2031,0.2027,0.2026,0.2011,0.2008,0.2015,0.1998,0.1997,0.2002,0.2011,0.1989,0.1989,0.2015,0.2016,0.2017,0.2044,0,0,0,0,0,0,0.2053,0.2052,0.2059,0.2047,0.2045,0.2053,0.2031,0.2028,0.2026,0.2024,0.2012,0.2009,0.1997,0.2002,0.2002,0.2011,0.1989,0.2014,0.2015,0.2016,0.2042,0.2046,0.2049,0,0,0,0,0,0.2053,0.2068,0.206,0.206,0.2053,0.2054,0.2053,0.2038,0.2027,0.2033,0.2023,0.201,0.201,0.2003,0.2002,0.2011,0.2013,0.2015,0.2016,0.2041,0.2045,0.2049,0,0,0,0,0,0,0.2083,0.2066,0.2057,0.2069,0.2063,0.2049,0.2056,0.2044,0.2041,0.2038,0.202,0.2018,0.2025,0.2019,0.2011,0.2024,0.2009,0.2011,0.2028,0.2032,0.2035,0.2036,0.1989,0,0,0,0,0,0.2091,0.2093,0.2078,0.209,0.2087,0.2072,0.2072,0.2061,0.2054,0.2051,0.2042,0.2035,0.2033,0.2032,0.203,0.2041,0.2037,0.2047,0.205,0.2053,0.2054,0.2056,0.206,0.2022,0.2022,0.2022,0,0,0.2108,0.2099,0.2101,0.2096,0.209,0.2091,0.207,0.2073,0.2073,0.2052,0.2055,0.2048,0.2039,0.2046,0.2049,0.2041,0.2063,0.2055,0.2057,0.2057,0.2058,0.2062,0.2065,0.2023,0.2023,0.2023,0,0,0.2138,0.2133,0.214,0.2134,0.2125,0.2114,0.2116,0.2103,0.2097,0.21,0.2083,0.2082,0.2081,0.2074,0.207,0.2094,0.2081,0.2094,0.2112,0.2114,0.2117,0.2119,0.2126,0.2129,0.2096,0.2096,0.2096,0,0.216,0.2162,0.2146,0.2149,0.2146,0.2125,0.2131,0.2126,0.2117,0.2115,0.2106,0.2101,0.2094,0.2097,0.2103,0.2102,0.2101,0.2095,0.2118,0.212,0.2122,0.2128,0.2131,0.2097,0.2097,0.2097,0.2097,0,0.2187,0.2189,0.2196,0.2186,0.2184,0.2189,0.2172,0.2172,0.216,0.215,0.2152,0.2142,0.2136,0.2136,0.2126,0.2138,0.2133,0.2121,0.2106,0.2128,0.2133,0.2135,0.21,0.2099,0.2099,0.2098,0,0,0.2238,0.2217,0.222,0.2214,0.2201,0.2201,0.2203,0.2197,0.2196,0.2189,0.219,0.2187,0.2175,0.2171,0.2159,0.2162,0.2178,0.215,0.2149,0.2154,0.2188,0.2195,0.2198,0.2169,0.217,0.217,0.2188,0,0.2264,0.2268,0.2252,0.226,0.2259,0.2238,0.224,0.2231,0.2221,0.2218,0.2206,0.2204,0.219,0.2187,0.2188,0.2176,0.2185,0.2175,0.2168,0.2168,0.217,0.2201,0.221,0.2227,0.219,0.219,0.219,0,0.2296,0.2289,0.2296,0.228,0.2279,0.2281,0.2272,0.2271,0.2259,0.2251,0.2245,0.2231,0.223,0.2216,0.2214,0.2208,0.2204,0.2197,0.2197,0.2195,0.218,0.2199,0.2233,0.2235,0.2194,0.2194,0.2193,0,0.2329,0.2322,0.2325,0.232,0.2302,0.2303,0.2296,0.2284,0.228,0.2272,0.2269,0.2261,0.2257,0.225,0.2233,0.2225,0.2232,0.2218,0.2224,0.2225,0.2227,0.2227,0.2259,0.2226,0.2226,0.2226,0.2226,0,0.2359,0.2363,0.2339,0.234,0.2344,0.2325,0.2329,0.2319,0.2308,0.2306,0.2288,0.2286,0.2265,0.226,0.2247,0.2246,0.2244,0.2237,0.2233,0.2238,0.2238,0.2234,0.2232,0.2227,0.2227,0.2227,0.2227,0,0.2396,0.238,0.2381,0.2363,0.2358,0.2362,0.2345,0.2345,0.2333,0.233,0.2328,0.2309,0.2302,0.2285,0.2274,0.2265,0.2267,0.2261,0.2271,0.2268,0.2275,0.2274,0.2306,0.2308,0.2275,0.2276,0.2276,0,0.2416,0.2419,0.24,0.2397,0.239,0.2386,0.2381,0.2362,0.2358,0.2344,0.2344,0.2336,0.2329,0.2318,0.2303,0.2294,0.2286,0.2298,0.2285,0.2289,0.2284,0.2284,0.2283,0.2301,0.2301,0.2301,0.2302,0,0.2452,0.2443,0.2437,0.2428,0.2423,0.2415,0.2405,0.2404,0.2382,0.2378,0.2371,0.2365,0.2352,0.2343,0.2331,0.2322,0.2307,0.2306,0.2306,0.2311,0.2316,0.2311,0.2277,0.2305,0.2305,0.2304,0.2304,0.2304,0.248,0.248,0.2466,0.246,0.245,0.2441,0.2439,0.2426,0.242,0.2408,0.2397,0.239,0.2376,0.2358,0.2349,0.2343,0.2335,0.2337,0.2337,0.2338,0.2339,0.2317,0.2341,0.234,0.234,0.234,0.234,0,0.2513,0.2502,0.2496,0.2483,0.2477,0.2464,0.2452,0.2448,0.2442,0.243,0.2422,0.2412,0.2403,0.2386,0.2375,0.2373,0.2365,0.237,0.237,0.2367,0.2347,0.2347,0.2376,0.2376,0.2376,0.2376,0.2376,0.2376,0.2529,0.2528,0.2517,0.2511,0.25,0.2493,0.2487,0.2478,0.2468,0.2457,0.2449,0.2438,0.2423,0.2411,0.2401,0.2396,0.2392,0.2398,0.2391,0.2372,0.2369,0.2366,0.2365,0.2398,0.2398,0.2411,0.2412,0.2412]}]]